• In Russia
  • List of Countries
  • For 7 days
  • Water Temperature
  • Satellite Maps
  • Weather Map
  • Weather Widgets
  • user-avatar
    Login

    Hourly Weather Lankaran

    Today, 19 January, Thursday

    Time Temperature Precipitation Wind Pressure Humidity
    00:00 -2°C° 0 mm 2 mps 635 mmHg 86%
    01:00 -3°C° 0 mm 2 mps 634 mmHg 86%
    02:00 -1°C° 0 mm 1 mps 634 mmHg 86%
    03:00 -1°C° 0 mm 1 mps 634 mmHg 88%
    04:00 -1°C° 0 mm 1 mps 634 mmHg 87%
    05:00 -1°C° 0 mm 1 mps 634 mmHg 87%
    06:00 -1°C° 0 mm 1 mps 634 mmHg 86%
    07:00 -3°C° 0 mm 2 mps 634 mmHg 84%
    08:00 -2°C° 0 mm 2 mps 635 mmHg 82%
    09:00 -2°C° 0 mm 2 mps 635 mmHg 83%
    10:00 -1°C° 0.1 mm 2 mps 635 mmHg 81%
    11:00 -1°C° 0.1 mm 2 mps 635 mmHg 80%
    12:00 -1°C° 0.1 mm 3 mps 635 mmHg 78%
    13:00 -1°C° 0.1 mm 3 mps 635 mmHg 79%
    14:00 -1°C° 0.1 mm 3 mps 635 mmHg 80%
    15:00 -1°C° 0 mm 3 mps 635 mmHg 81%
    16:00 -2°C° 0.2 mm 3 mps 635 mmHg 84%
    17:00 -2°C° 0.2 mm 3 mps 635 mmHg 87%
    18:00 -4°C° 0.2 mm 3 mps 635 mmHg 89%
    19:00 -4°C° 0.1 mm 3 mps 635 mmHg 89%
    20:00 -4°C° 0.1 mm 3 mps 635 mmHg 90%
    21:00 -4°C° 0.1 mm 3 mps 635 mmHg 90%
    22:00 -4°C° 0.1 mm 3 mps 635 mmHg 90%
    23:00 -5°C° 0.1 mm 3 mps 635 mmHg 89%

    Tomorrow, 20 January, Friday

    Time Temperature Precipitation Wind Pressure Humidity
    00:00 -5°C° 0.1 mm 3 mps 635 mmHg 89%
    01:00 -5°C° 0.1 mm 3 mps 635 mmHg 89%
    02:00 -5°C° 0.1 mm 3 mps 635 mmHg 89%
    03:00 -5°C° 0.1 mm 3 mps 635 mmHg 88%
    04:00 -5°C° 0.1 mm 3 mps 635 mmHg 88%
    05:00 -5°C° 0.1 mm 3 mps 635 mmHg 88%
    06:00 -5°C° 0.1 mm 3 mps 635 mmHg 88%
    07:00 -5°C° 0.1 mm 3 mps 636 mmHg 87%
    08:00 -4°C° 0.1 mm 3 mps 636 mmHg 85%
    09:00 -4°C° 0.1 mm 3 mps 636 mmHg 84%
    10:00 -4°C° 0.1 mm 3 mps 636 mmHg 82%
    11:00 -2°C° 0.1 mm 3 mps 636 mmHg 79%
    12:00 -2°C° 0.1 mm 3 mps 636 mmHg 77%
    13:00 -2°C° 0.2 mm 3 mps 635 mmHg 78%
    14:00 -2°C° 0.2 mm 3 mps 635 mmHg 78%
    15:00 -2°C° 0.2 mm 3 mps 635 mmHg 79%
    16:00 -4°C° 0.2 mm 3 mps 635 mmHg 82%
    17:00 -4°C° 0.2 mm 3 mps 635 mmHg 86%
    18:00 -4°C° 0.2 mm 2 mps 635 mmHg 89%
    19:00 -4°C° 0.3 mm 2 mps 635 mmHg 89%
    20:00 -4°C° 0.3 mm 2 mps 635 mmHg 89%
    21:00 -4°C° 0.3 mm 2 mps 634 mmHg 89%
    22:00 -4°C° 0.3 mm 2 mps 634 mmHg 89%
    23:00 -4°C° 0.3 mm 2 mps 634 mmHg 89%

    Day after tomorrow, 21 January, Saturday

    Time Temperature Precipitation Wind Pressure Humidity
    00:00 -4°C° 0.3 mm 2 mps 634 mmHg 89%
    01:00 -4°C° 0.3 mm 2 mps 634 mmHg 89%
    02:00 -4°C° 0.3 mm 2 mps 634 mmHg 89%
    03:00 -4°C° 0.3 mm 2 mps 634 mmHg 88%
    04:00 -5°C° 0.2 mm 2 mps 634 mmHg 88%
    05:00 -5°C° 0.2 mm 2 mps 634 mmHg 87%
    06:00 -5°C° 0.2 mm 2 mps 634 mmHg 87%
    07:00 -4°C° 0.2 mm 2 mps 634 mmHg 84%
    08:00 -4°C° 0.2 mm 2 mps 634 mmHg 81%
    09:00 -4°C° 0.2 mm 2 mps 634 mmHg 78%
    10:00 -2°C° 0.2 mm 1 mps 634 mmHg 76%
    11:00 -1°C° 0.2 mm 1 mps 634 mmHg 74%
    12:00 -1°C° 0.2 mm 1 mps 634 mmHg 72%
    13:00 -1°C° 0.2 mm 1 mps 634 mmHg 72%
    14:00 -1°C° 0.2 mm 1 mps 633 mmHg 72%
    15:00 -1°C° 0.2 mm 1 mps 633 mmHg 72%
    16:00 -1°C° 0.1 mm 1 mps 633 mmHg 75%
    17:00 -2°C° 0.1 mm 1 mps 633 mmHg 79%
    18:00 -3°C° 0.1 mm 1 mps 633 mmHg 83%
    19:00 -3°C° 0.1 mm 1 mps 633 mmHg 83%
    20:00 -3°C° 0.1 mm 1 mps 633 mmHg 83%
    21:00 -3°C° 0.1 mm 1 mps 633 mmHg 83%
    22:00 -4°C° 0 mm 1 mps 632 mmHg 81%
    23:00 -4°C° 0 mm 1 mps 632 mmHg 79%

    22 January, Sunday

    Time Temperature Precipitation Wind Pressure Humidity
    00:00 -4°C° 0 mm 1 mps 632 mmHg 78%
    01:00 -4°C° 0 mm 1 mps 632 mmHg 77%
    02:00 -4°C° 0 mm 1 mps 631 mmHg 75%
    03:00 -6°C° 0 mm 1 mps 631 mmHg 74%
    04:00 -6°C° 0 mm 1 mps 631 mmHg 74%
    05:00 -7°C° 0 mm 2 mps 631 mmHg 74%
    06:00 -7°C° 0 mm 2 mps 631 mmHg 75%
    07:00 -6°C° 0 mm 2 mps 631 mmHg 73%
    08:00 -5°C° 0 mm 2 mps 632 mmHg 71%
    09:00 -5°C° 0 mm 3 mps 633 mmHg 69%
    10:00 -4°C° 0.1 mm 3 mps 633 mmHg 67%
    11:00 -4°C° 0.1 mm 3 mps 633 mmHg 65%
    12:00 -2°C° 0.1 mm 3 mps 633 mmHg 64%
    13:00 -4°C° 0.1 mm 3 mps 633 mmHg 65%
    14:00 -4°C° 0.1 mm 3 mps 633 mmHg 66%
    15:00 -4°C° 0.1 mm 3 mps 633 mmHg 68%
    16:00 -5°C° 0.1 mm 3 mps 633 mmHg 72%
    17:00 -6°C° 0.1 mm 3 mps 634 mmHg 77%
    18:00 -6°C° 0.1 mm 2 mps 634 mmHg 82%
    19:00 -7°C° 0.5 mm 3 mps 635 mmHg 83%
    20:00 -7°C° 0.5 mm 3 mps 635 mmHg 85%
    21:00 -8°C° 0.5 mm 4 mps 636 mmHg 87%
    22:00 -8°C° 1 mm 4 mps 636 mmHg 87%
    23:00 -9°C° 1 mm 4 mps 636 mmHg 88%

    23 January, Monday

    Time Temperature Precipitation Wind Pressure Humidity
    00:00 -10°C° 1 mm 5 mps 636 mmHg 88%
    01:00 -9°C° 0.8 mm 4 mps 636 mmHg 88%
    02:00 -10°C° 0.8 mm 4 mps 637 mmHg 89%
    03:00 -10°C° 0.8 mm 4 mps 637 mmHg 89%
    04:00 -10°C° 0.7 mm 4 mps 637 mmHg 89%
    05:00 -10°C° 0.7 mm 4 mps 638 mmHg 89%
    06:00 -10°C° 0.7 mm 3 mps 639 mmHg 89%
    07:00 -10°C° 0.4 mm 3 mps 639 mmHg 87%
    08:00 -9°C° 0.4 mm 3 mps 640 mmHg 86%
    09:00 -9°C° 0.4 mm 3 mps 640 mmHg 84%
    10:00 -8°C° 0.3 mm 2 mps 640 mmHg 83%
    11:00 -8°C° 0.3 mm 2 mps 641 mmHg 81%
    12:00 -7°C° 0.3 mm 2 mps 641 mmHg 79%
    13:00 -7°C° 0.1 mm 2 mps 640 mmHg 78%
    14:00 -7°C° 0.1 mm 2 mps 640 mmHg 77%
    15:00 -6°C° 0.1 mm 1 mps 640 mmHg 75%
    16:00 -7°C° 0 mm 1 mps 640 mmHg 77%
    17:00 -9°C° 0 mm 1 mps 640 mmHg 78%
    18:00 -10°C° 0 mm 1 mps 639 mmHg 80%
    19:00 -10°C° 0 mm 1 mps 639 mmHg 78%
    20:00 -11°C° 0 mm 1 mps 639 mmHg 76%
    21:00 -13°C° 0 mm 2 mps 639 mmHg 74%
    22:00 -13°C° 0 mm 2 mps 639 mmHg 70%
    23:00 -13°C° 0 mm 2 mps 639 mmHg 65%

    24 January, Tuesday

    Time Temperature Precipitation Wind Pressure Humidity
    00:00 -13°C° 0 mm 2 mps 639 mmHg 60%
    01:00 -14°C° 0 mm 2 mps 638 mmHg 59%
    02:00 -14°C° 0 mm 2 mps 638 mmHg 57%
    03:00 -13°C° 0 mm 1 mps 638 mmHg 55%
    04:00 -13°C° 0 mm 1 mps 638 mmHg 55%
    05:00 -13°C° 0 mm 1 mps 637 mmHg 54%
    06:00 -13°C° 0 mm 1 mps 637 mmHg 54%
    07:00 -12°C° 0 mm 2 mps 638 mmHg 53%
    08:00 -9°C° 0 mm 2 mps 639 mmHg 53%
    09:00 -6°C° 0 mm 2 mps 640 mmHg 52%
    10:00 -5°C° 0 mm 2 mps 640 mmHg 52%
    11:00 -4°C° 0 mm 2 mps 640 mmHg 53%
    12:00 -2°C° 0 mm 2 mps 639 mmHg 53%
    13:00 -2°C° 0 mm 2 mps 639 mmHg 56%
    14:00 -2°C° 0 mm 3 mps 638 mmHg 60%
    15:00 -2°C° 0 mm 3 mps 638 mmHg 63%
    16:00 -5°C° 0 mm 3 mps 637 mmHg 63%
    17:00 -7°C° 0 mm 3 mps 636 mmHg 63%
    18:00 -9°C° 0 mm 3 mps 636 mmHg 63%
    19:00 -8°C° 0 mm 3 mps 636 mmHg 60%
    20:00 -8°C° 0 mm 3 mps 635 mmHg 56%
    21:00 -8°C° 0 mm 3 mps 635 mmHg 52%
    22:00 -8°C° 0 mm 3 mps 635 mmHg 50%
    23:00 -8°C° 0 mm 3 mps 634 mmHg 49%
    Show more